Flag for Germany Weather past 2 weeks in Wipperfürth, North Rhine-Westphalia, Germany

Now
68 °F

Partly sunny.


Feels Like: 68 °F
Forecast: 62 / 75 °F
Wind: 3 mph from Northeast

Location: Koeln / Bonn

Current Time: Jul 28, 2014 at 9:23:26 PM

Latest Report: Jul 28, 2014 at 8:50 PM


Visibility: N/A

Pressure: 29.86 "Hg

Humidity: 88%

Dew point: 64 °F

Location of WipperfürthLocation

Historic Weather in Wipperfürth — Graph

°F

Wipperfürth temperature yesterday

Maximum temperature yesterday: 77 °F (at 3:50 PM)
Minimum temperature yesterday: 57 °F (at 4:50 AM)
Average temperature yesterday: 68 °F

Past Weeks' High & Low Weather Summary

 TemperatureHumidityPressure
High91 °F (Jul 19, 2:50 PM)100% (Jul 13, 8:20 PM)30.18 "Hg (Jul 13, 8:20 PM)
Low54 °F (Jul 25, 4:20 AM)26% (Jul 19, 2:50 PM)29.74 "Hg (Jul 13, 8:20 PM)
Average70 °F73%29.97 "Hg
* Reported Jul 13 8:20 PM — Jul 28 8:20 PM, Wipperfürth, Weather by CustomWeather, © 2014

Note: Actual official high and low records may vary slightly from our data, if they occured in-between our weather recording intervals... More about our weather records

Advertising

Wipperfürth weather history for previous 24 hours

 ConditionsComfort  
Time TempWeatherWind HumidityBarometerVisibility
8:20 PM
Jul 28
68 °FSunny.6 mph88%29.86 "Hg10 mi
7:50 PM68 °FSunny.7 mph88%29.86 "Hg10 mi
7:20 PM68 °FPartly sunny.6 mph88%29.83 "HgN/A
6:50 PM68 °FBroken clouds.3 mph88%29.86 "HgN/A
6:20 PM66 °FPartly sunny.5 mph94%29.83 "HgN/A
5:50 PM66 °FBroken clouds.7 mph88%29.83 "HgN/A
5:20 PM66 °FThundershowers. Broken clouds.5 mph88%29.83 "HgN/A
4:50 PM64 °FThunderstorms. Partly sunny.5 mph94%29.86 "HgN/A
4:20 PM68 °FMild.3 mph88%29.86 "Hg1 mi
3:50 PM73 °FThundershowers. Broken clouds.14 mph74%29.83 "HgN/A
3:20 PM77 °FBroken clouds.18 mph65%29.80 "HgN/A
2:50 PM81 °FBroken clouds.7 mph45%29.83 "HgN/A
2:20 PM82 °FBroken clouds.9 mph40%29.83 "HgN/A
1:50 PM82 °FBroken clouds.10 mph45%29.83 "HgN/A
1:20 PM81 °FBroken clouds.9 mph45%29.83 "HgN/A
12:50 PM81 °FBroken clouds.8 mph48%29.83 "HgN/A
12:20 PM79 °FBroken clouds.6 mph61%29.83 "HgN/A
11:50 AM79 °FBroken clouds.9 mph54%29.86 "HgN/A
11:20 AM77 °FPartly sunny.8 mph61%29.86 "HgN/A
10:50 AM77 °FSunny.9 mph65%29.86 "Hg10 mi
10:20 AM75 °FSunny.8 mph69%29.86 "Hg10 mi
9:50 AM73 °FSunny.7 mph69%29.86 "Hg10 mi
9:20 AM70 °FSunny.6 mph78%29.89 "Hg10 mi
8:50 AM68 °FScattered clouds.6 mph78%29.89 "HgN/A
8:20 AM66 °FSunny.3 mph83%29.89 "Hg10 mi
7:50 AM64 °FSunny.5 mph88%29.89 "Hg10 mi
7:20 AM64 °FSunny.2 mph88%29.89 "Hg10 mi
6:50 AM64 °FClear.2 mph88%29.89 "Hg10 mi
6:20 AM64 °FClear.6 mph83%29.89 "Hg10 mi
5:50 AM64 °FPassing clouds.7 mph88%29.89 "HgN/A
5:20 AM63 °FPartly cloudy.6 mph94%29.89 "HgN/A
4:20 AM63 °FPartly cloudy.3 mph94%29.92 "HgN/A
3:50 AM63 °FPartly cloudy.2 mph94%29.92 "HgN/A
3:20 AM61 °FClear.2 mph94%29.92 "Hg10 mi
2:50 AM63 °FClear.5 mph88%29.92 "Hg10 mi
2:20 AM61 °FFog.5 mph94%29.95 "HgN/A
1:50 AM63 °FFog.3 mph94%29.95 "HgN/A
1:20 AM63 °FFog.5 mph94%29.95 "HgN/A
12:50 AM63 °FFog.2 mph88%29.95 "HgN/A
12:20 AM64 °FFog.2 mph88%29.98 "HgN/A
11:50 PM
Jul 27
64 °FFog.7 mph88%29.95 "HgN/A
11:20 PM64 °FClear.3 mph94%29.95 "Hg10 mi
10:50 PM64 °FClear.1 mph88%29.98 "Hg10 mi
10:20 PM68 °FSunny.5 mph83%29.98 "Hg10 mi
9:50 PM68 °FSunny.1 mph83%29.98 "Hg10 mi
9:20 PM70 °FSunny.3 mph78%29.98 "Hg10 mi
Weather by CustomWeather, © 2014

See weather overviewHow to use our weather pages